Location: Ferintosh
(52.7647°N, 112.9692°W)
Time: 13:15:56
(UTC+00:00)

Transit 2A - Pass Details

Date: 27 May 2024
Orbit: 592 x 959 km, 66.7° (Epoch: 23 June)

Event Time Altitude Azimuth Distance (km) Brightness Sun altitude
Rises 08:42:58 0° 288° (WNW) 3,142 9.2 -14.1°
Reaches altitude 10° 08:45:53 10° 306° (NW) 2,291 8.7 -14.0°
Maximum altitude 08:49:42 20° 353° (N) 1,796 8.8 -13.8°
Drops below altitude 10° 08:53:48 10° 39° (NE) 2,476 9.9 -13.6°
Sets 08:57:06 0° 56° (NE) 3,482 10.4 -13.4°
